| time (UTC) | temp C | wind direction | speed KPH | gust KPH | rain 1hr cm | rain 24hr cm | rain mn cm | humidity % | barometer mb |
| 20260508053947 | 2 | 131 | 0.0 | 3.2 | 0.00 | 0.00 | 0.00 | 93 | 1016.6 |
| 20260508053444 | 2 | 121 | 1.6 | 1.6 | 0.00 | 0.00 | 0.00 | 93 | 1016.7 |
| 20260508052942 | 2 | 120 | 1.6 | 3.2 | 0.00 | 0.00 | 0.00 | 93 | 1016.5 |
| 20260508052439 | 2 | 110 | 1.6 | 1.6 | 0.00 | 0.00 | 0.00 | 92 | 1016.9 |
| 20260508051935 | 2 | 133 | 1.6 | 4.8 | 0.00 | 0.00 | 0.00 | 91 | 1016.6 |
| 20260508051431 | 2 | 124 | 1.6 | 3.2 | 0.00 | 0.00 | 0.00 | 92 | 1017.0 |
| 20260508050927 | 3 | 150 | 1.6 | 3.2 | 0.00 | 0.00 | 0.00 | 91 | 1016.7 |
| 20260508050424 | 3 | 131 | 1.6 | 3.2 | 0.00 | 0.00 | 0.00 | 91 | 1016.7 |
| 20260508045920 | 3 | 130 | 1.6 | 3.2 | 0.00 | 0.00 | 0.00 | 91 | 1016.7 |
| 20260508045418 | 3 | 132 | 1.6 | 4.8 | 0.00 | 0.00 | 0.00 | 92 | 1016.7 |
| 20260508044916 | 3 | 122 | 1.6 | 1.6 | 0.00 | 0.00 | 0.00 | 92 | 1017.0 |
| 20260508044414 | 3 | 122 | 0.0 | 3.2 | 0.00 | 0.00 | 0.00 | 92 | 1016.5 |
| 20260508043909 | 3 | 121 | 0.0 | 3.2 | 0.00 | 0.00 | 0.00 | 92 | 1016.6 |
| 20260508043406 | 3 | 121 | 1.6 | 1.6 | 0.00 | 0.00 | 0.00 | 92 | 1016.9 |
| 20260508042902 | 3 | 121 | 1.6 | 1.6 | 0.00 | 0.00 | 0.00 | 92 | 1016.9 |
| 20260508042354 | 3 | 121 | 1.6 | 1.6 | 0.00 | 0.00 | 0.00 | 91 | 1016.5 |
| 20260508041851 | 3 | 121 | 0.0 | 1.6 | 0.00 | 0.00 | 0.00 | 90 | 1016.4 |
| 20260508041347 | 3 | 108 | 1.6 | 1.6 | 0.00 | 0.00 | 0.00 | 89 | 1016.4 |
| 20260508040844 | 3 | 97 | 1.6 | 1.6 | 0.00 | 0.00 | 0.00 | 89 | 1016.5 |
| 20260508040341 | 3 | 137 | 0.0 | 1.6 | 0.00 | 0.00 | 0.00 | 88 | 1016.4 |
| 20260508035839 | 3 | 137 | 0.0 | 1.6 | 0.00 | 0.05 | 0.05 | 87 | 1016.3 |
| 20260508035336 | 3 | 137 | 1.6 | 1.6 | 0.00 | 0.05 | 0.05 | 86 | 1016.1 |
| 20260508034833 | 3 | 137 | 0.0 | 0.0 | 0.00 | 0.05 | 0.05 | 86 | 1016.2 |
| 20260508034330 | 3 | 137 | 0.0 | 1.6 | 0.00 | 0.05 | 0.05 | 87 | 1016.1 |
| 20260508033826 | 3 | 162 | 0.0 | 0.0 | 0.00 | 0.05 | 0.05 | 88 | 1016.1 |
| 20260508033325 | 3 | 113 | 0.0 | 1.6 | 0.00 | 0.05 | 0.05 | 88 | 1016.1 |
| 20260508032822 | 4 | 113 | 0.0 | 1.6 | 0.00 | 0.05 | 0.05 | 88 | 1016.0 |
| 20260508032319 | 4 | 129 | 0.0 | 1.6 | 0.00 | 0.05 | 0.05 | 85 | 1015.8 |
| 20260508031815 | 5 | 129 | 0.0 | 1.6 | 0.00 | 0.05 | 0.05 | 84 | 1016.0 |
| 20260508031312 | 5 | 129 | 1.6 | 1.6 | 0.00 | 0.05 | 0.05 | 84 | 1015.8 |
| 20260508030808 | 5 | 129 | 1.6 | 3.2 | 0.00 | 0.05 | 0.05 | 81 | 1015.9 |
| 20260508030306 | 5 | 129 | 1.6 | 1.6 | 0.00 | 0.05 | 0.05 | 82 | 1015.8 |
| 20260508025802 | 5 | 129 | 1.6 | 3.2 | 0.00 | 0.05 | 0.05 | 82 | 1015.7 |
| 20260508025259 | 5 | 129 | 1.6 | 1.6 | 0.00 | 0.05 | 0.05 | 81 | 1015.6 |
| 20260508024755 | 5 | 129 | 0.0 | 3.2 | 0.00 | 0.05 | 0.05 | 80 | 1015.7 |
| 20260508024252 | 5 | 129 | 1.6 | 3.2 | 0.00 | 0.05 | 0.05 | 80 | 1015.4 |
| 20260508023749 | 5 | 128 | 0.0 | 1.6 | 0.00 | 0.05 | 0.05 | 80 | 1015.4 |
| 20260508023247 | 5 | 128 | 0.0 | 1.6 | 0.00 | 0.05 | 0.05 | 80 | 1015.4 |
| 20260508022742 | 5 | 123 | 0.0 | 1.6 | 0.00 | 0.05 | 0.05 | 79 | 1015.3 |
| 20260508022239 | 5 | 123 | 1.6 | 3.2 | 0.00 | 0.05 | 0.05 | 79 | 1015.3 |
| 20260508021736 | 5 | 138 | 0.0 | 1.6 | 0.00 | 0.05 | 0.05 | 78 | 1015.1 |
| 20260508021231 | 6 | 140 | 1.6 | 1.6 | 0.00 | 0.05 | 0.05 | 79 | 1015.1 |
| 20260508020729 | 6 | 140 | 0.0 | 1.6 | 0.00 | 0.05 | 0.05 | 77 | 1015.3 |
| 20260508020226 | 6 | 140 | 0.0 | 1.6 | 0.00 | 0.05 | 0.05 | 77 | 1015.0 |
| 20260508015723 | 6 | 176 | 1.6 | 3.2 | 0.00 | 0.05 | 0.05 | 77 | 1014.9 |
| 20260508015220 | 6 | 143 | 1.6 | 3.2 | 0.00 | 0.05 | 0.05 | 81 | 1014.9 |
| 20260508014717 | 6 | 145 | 1.6 | 3.2 | 0.00 | 0.05 | 0.05 | 78 | 1014.9 |
| 20260508014214 | 6 | 132 | 0.0 | 0.0 | 0.00 | 0.05 | 0.05 | 79 | 1014.9 |
| 20260508013709 | 6 | 203 | 1.6 | 4.8 | 0.00 | 0.05 | 0.05 | 79 | 1015.0 |
| 20260508013206 | 6 | 215 | 1.6 | 3.2 | 0.00 | 0.05 | 0.05 | 76 | 1014.7 |
| 20260508012704 | 7 | 250 | 1.6 | 3.2 | 0.00 | 0.05 | 0.05 | 75 | 1014.7 |
| 20260508012200 | 7 | 137 | 3.2 | 4.8 | 0.00 | 0.05 | 0.05 | 65 | 1014.7 |
| 20260508011659 | 7 | 212 | 1.6 | 3.2 | 0.00 | 0.05 | 0.05 | 75 | 1014.3 |
| 20260508011156 | 7 | 155 | 1.6 | 1.6 | 0.00 | 0.05 | 0.05 | 74 | 1014.4 |
| 20260508010652 | 8 | 117 | 1.6 | 4.8 | 0.00 | 0.05 | 0.05 | 71 | 1014.3 |
| 20260508010150 | 8 | 116 | 1.6 | 1.6 | 0.00 | 0.05 | 0.05 | 72 | 1014.2 |
| 20260508005648 | 8 | 130 | 1.6 | 1.6 | 0.00 | 0.05 | 0.05 | 65 | 1014.2 |
| 20260508005144 | 8 | 130 | 3.2 | 3.2 | 0.00 | 0.05 | 0.05 | 68 | 1014.0 |
| 20260508004640 | 8 | 123 | 1.6 | 3.2 | 0.00 | 0.05 | 0.05 | 65 | 1014.0 |
| 20260508004136 | 8 | 130 | 0.0 | 1.6 | 0.00 | 0.05 | 0.05 | 67 | 1013.9 |
| 20260508003633 | 8 | 135 | 0.0 | 0.0 | 0.00 | 0.05 | 0.05 | 67 | 1014.0 |
| 20260508003131 | 9 | 135 | 0.0 | 1.6 | 0.00 | 0.05 | 0.05 | 67 | 1014.0 |
| 20260508002627 | 9 | 135 | 1.6 | 3.2 | 0.00 | 0.05 | 0.05 | 63 | 1014.0 |
| 20260508002125 | 9 | 135 | 1.6 | 3.2 | 0.00 | 0.05 | 0.05 | 64 | 1013.6 |
| 20260508001619 | 10 | 135 | 3.2 | 3.2 | 0.00 | 0.05 | 0.05 | 59 | 1013.8 |
| 20260508001116 | 10 | 135 | 1.6 | 3.2 | 0.00 | 0.05 | 0.05 | 58 | 1013.9 |
| 20260508000612 | 11 | 137 | 1.6 | 1.6 | 0.00 | 0.05 | 0.05 | 54 | 1013.8 |
| 20260508000109 | 11 | 357 | 1.6 | 1.6 | 0.00 | 0.05 | 0.05 | 52 | 1013.9 |
| 20260507235606 | 11 | 80 | 0.0 | 4.8 | 0.00 | 0.05 | 0.05 | 48 | 1013.8 |
| 20260507235103 | 11 | 124 | 0.0 | 1.6 | 0.00 | 0.05 | 0.05 | 51 | 1013.5 |
| 20260507234600 | 11 | 295 | 1.6 | 3.2 | 0.00 | 0.05 | 0.05 | 55 | 1013.9 |
| 20260507234056 | 12 | 286 | 8.0 | 9.7 | 0.00 | 0.05 | 0.05 | 49 | 1013.4 |
| 20260507233553 | 12 | 260 | 3.2 | 3.2 | 0.00 | 0.05 | 0.05 | 48 | 1013.4 |
| 20260507233052 | 13 | 44 | 1.6 | 4.8 | 0.00 | 0.05 | 0.05 | 44 | 1013.4 |
| 20260507232547 | 12 | 245 | 1.6 | 6.4 | 0.00 | 0.05 | 0.05 | 46 | 1013.4 |
| 20260507232045 | 12 | 68 | 3.2 | 4.8 | 0.00 | 0.05 | 0.05 | 48 | 1013.2 |
| 20260507231541 | 12 | 232 | 3.2 | 12.9 | 0.00 | 0.05 | 0.05 | 48 | 1012.9 |
| 20260507231039 | 13 | 356 | 1.6 | 4.8 | 0.00 | 0.05 | 0.05 | 47 | 1013.0 |
| 20260507230535 | 12 | 134 | 0.0 | 6.4 | 0.00 | 0.05 | 0.05 | 46 | 1013.1 |
| 20260507230032 | 13 | 292 | 0.0 | 4.8 | 0.00 | 0.05 | 0.05 | 48 | 1013.1 |
| 20260507225527 | 14 | 266 | 6.4 | 14.5 | 0.00 | 0.05 | 0.05 | 43 | 1013.1 |
| 20260507225023 | 15 | 235 | 6.4 | 12.9 | 0.00 | 0.05 | 0.05 | 42 | 1013.2 |
| 20260507224519 | 15 | 87 | 1.6 | 9.7 | 0.00 | 0.05 | 0.05 | 42 | 1013.0 |
| 20260507224016 | 14 | 321 | 4.8 | 9.7 | 0.00 | 0.05 | 0.05 | 43 | 1012.6 |
| 20260507223512 | 13 | 28 | 1.6 | 9.7 | 0.00 | 0.05 | 0.05 | 44 | 1012.8 |
| 20260507223010 | 13 | 155 | 3.2 | 6.4 | 0.00 | 0.05 | 0.05 | 46 | 1012.8 |
| 20260507222507 | 13 | 325 | 3.2 | 4.8 | 0.00 | 0.05 | 0.05 | 48 | 1012.8 |
| 20260507222002 | 14 | 335 | 3.2 | 4.8 | 0.00 | 0.05 | 0.05 | 48 | 1012.9 |
| 20260507221459 | 13 | 35 | 0.0 | 9.7 | 0.00 | 0.05 | 0.05 | 47 | 1012.8 |
| 20260507220956 | 13 | 140 | 3.2 | 9.7 | 0.00 | 0.05 | 0.05 | 48 | 1012.7 |
| 20260507220453 | 15 | 286 | 6.4 | 11.3 | 0.00 | 0.05 | 0.05 | 45 | 1012.7 |
| 20260507215950 | 15 | 68 | 3.2 | 6.4 | 0.00 | 0.05 | 0.05 | 43 | 1012.6 |
| 20260507215446 | 15 | 53 | 6.4 | 12.9 | 0.00 | 0.05 | 0.05 | 47 | 1012.3 |
| 20260507214944 | 15 | 278 | 6.4 | 9.7 | 0.00 | 0.05 | 0.05 | 47 | 1012.0 |
| 20260507214442 | 15 | 43 | 0.0 | 6.4 | 0.00 | 0.05 | 0.05 | 46 | 1012.1 |
| 20260507213937 | 15 | 73 | 9.7 | 11.3 | 0.00 | 0.05 | 0.05 | 47 | 1012.1 |
| 20260507213434 | 15 | 308 | 4.8 | 6.4 | 0.00 | 0.05 | 0.05 | 47 | 1012.1 |
| 20260507212931 | 14 | 262 | 3.2 | 9.7 | 0.00 | 0.05 | 0.05 | 43 | 1012.0 |
| 20260507212426 | 15 | 71 | 3.2 | 6.4 | 0.00 | 0.05 | 0.05 | 45 | 1012.1 |
| 20260507211924 | 15 | 300 | 4.8 | 9.7 | 0.00 | 0.05 | 0.05 | 44 | 1011.9 |
| 20260507211420 | 15 | 310 | 6.4 | 9.7 | 0.00 | 0.05 | 0.05 | 45 | 1011.8 |
| 20260507210917 | 16 | 44 | 3.2 | 4.8 | 0.00 | 0.05 | 0.05 | 46 | 1012.1 |
| 20260507210414 | 15 | 299 | 1.6 | 9.7 | 0.00 | 0.05 | 0.05 | 47 | 1012.0 |
| 20260507205910 | 13 | 289 | 4.8 | 14.5 | 0.00 | 0.05 | 0.05 | 51 | 1012.0 |
| 20260507205408 | 13 | 321 | 1.6 | 9.7 | 0.00 | 0.05 | 0.05 | 49 | 1012.0 |
| 20260507204904 | 13 | 57 | 1.6 | 6.4 | 0.00 | 0.05 | 0.05 | 51 | 1012.0 |
| 20260507204400 | 13 | 319 | 4.8 | 9.7 | 0.00 | 0.05 | 0.05 | 51 | 1011.9 |
| 20260507203858 | 13 | 64 | 3.2 | 9.7 | 0.00 | 0.05 | 0.05 | 55 | 1011.7 |
| 20260507203356 | 14 | 324 | 11.3 | 14.5 | 0.00 | 0.05 | 0.05 | 50 | 1011.9 |
| 20260507202852 | 15 | 339 | 3.2 | 11.3 | 0.00 | 0.05 | 0.05 | 47 | 1012.0 |
| 20260507202348 | 15 | 145 | 1.6 | 6.4 | 0.00 | 0.05 | 0.05 | 45 | 1012.3 |
| 20260507201844 | 15 | 2 | 1.6 | 11.3 | 0.00 | 0.05 | 0.05 | 47 | 1012.1 |
| 20260507201339 | 15 | 36 | 4.8 | 9.7 | 0.00 | 0.05 | 0.05 | 53 | 1012.1 |
| 20260507200836 | 14 | 309 | 6.4 | 12.9 | 0.00 | 0.05 | 0.05 | 51 | 1012.3 |
| 20260507200332 | 14 | 88 | 3.2 | 4.8 | 0.00 | 0.05 | 0.05 | 56 | 1012.3 |
| 20260507195828 | 14 | 25 | 6.4 | 9.7 | 0.00 | 0.05 | 0.05 | 51 | 1012.5 |
| 20260507195326 | 15 | 40 | 3.2 | 6.4 | 0.00 | 0.05 | 0.05 | 50 | 1012.1 |
| 20260507194823 | 15 | 103 | 3.2 | 6.4 | 0.00 | 0.05 | 0.05 | 54 | 1012.4 |
| 20260507194319 | 15 | 346 | 4.8 | 6.4 | 0.00 | 0.05 | 0.05 | 51 | 1012.4 |
| 20260507193816 | 14 | 253 | 3.2 | 4.8 | 0.00 | 0.05 | 0.05 | 50 | 1012.3 |
| 20260507193313 | 15 | 219 | 0.0 | 11.3 | 0.00 | 0.05 | 0.05 | 52 | 1012.4 |
| 20260507192808 | 16 | 313 | 4.8 | 9.7 | 0.00 | 0.05 | 0.05 | 44 | 1012.5 |
| 20260507192306 | 15 | 314 | 6.4 | 16.1 | 0.00 | 0.05 | 0.05 | 47 | 1012.4 |
| 20260507191802 | 14 | 110 | 3.2 | 4.8 | 0.00 | 0.05 | 0.05 | 54 | 1012.5 |
| 20260507191258 | 15 | 338 | 3.2 | 4.8 | 0.00 | 0.05 | 0.05 | 53 | 1012.6 |
| 20260507190755 | 15 | 307 | 3.2 | 9.7 | 0.00 | 0.05 | 0.05 | 50 | 1012.4 |
| 20260507190254 | 15 | 275 | 1.6 | 6.4 | 0.00 | 0.05 | 0.05 | 55 | 1012.4 |
| 20260507185752 | 15 | 94 | 1.6 | 20.9 | 0.00 | 0.05 | 0.05 | 54 | 1012.4 |
| 20260507185248 | 15 | 88 | 1.6 | 6.4 | 0.00 | 0.05 | 0.05 | 57 | 1012.3 |
| 20260507184746 | 15 | 294 | 9.7 | 12.9 | 0.00 | 0.05 | 0.05 | 51 | 1012.5 |
| 20260507184244 | 13 | 21 | 1.6 | 14.5 | 0.00 | 0.05 | 0.05 | 54 | 1012.7 |
| 20260507183741 | 14 | 305 | 6.4 | 11.3 | 0.00 | 0.05 | 0.05 | 54 | 1012.9 |
| 20260507183238 | 14 | 294 | 11.3 | 16.1 | 0.00 | 0.05 | 0.05 | 55 | 1012.6 |
| 20260507182736 | 15 | 48 | 3.2 | 11.3 | 0.00 | 0.05 | 0.05 | 51 | 1012.5 |
| 20260507182235 | 15 | 330 | 4.8 | 9.7 | 0.00 | 0.05 | 0.05 | 52 | 1012.5 |
| 20260507181733 | 15 | 306 | 11.3 | 14.5 | 0.00 | 0.05 | 0.05 | 51 | 1012.5 |
| 20260507181229 | 13 | 316 | 6.4 | 9.7 | 0.00 | 0.05 | 0.05 | 59 | 1012.5 |
| 20260507180726 | 15 | 315 | 1.6 | 9.7 | 0.00 | 0.05 | 0.05 | 50 | 1012.6 |
| 20260507180223 | 14 | 295 | 14.5 | 22.5 | 0.00 | 0.05 | 0.05 | 53 | 1012.5 |
| 20260507175718 | 14 | 325 | 1.6 | 6.4 | 0.00 | 0.05 | 0.05 | 56 | 1012.6 |
| 20260507175215 | 15 | 54 | 3.2 | 9.7 | 0.00 | 0.05 | 0.05 | 50 | 1012.5 |
| 20260507174713 | 15 | 285 | 3.2 | 6.4 | 0.00 | 0.05 | 0.05 | 54 | 1012.5 |
| 20260507174211 | 15 | 39 | 3.2 | 4.8 | 0.00 | 0.05 | 0.05 | 54 | 1012.7 |
| 20260507173708 | 15 | 295 | 3.2 | 12.9 | 0.00 | 0.05 | 0.05 | 55 | 1012.7 |
| 20260507173205 | 14 | 33 | 4.8 | 12.9 | 0.00 | 0.05 | 0.05 | 54 | 1012.9 |
| 20260507172701 | 13 | 264 | 9.7 | 16.1 | 0.00 | 0.05 | 0.05 | 56 | 1013.0 |
| 20260507172159 | 13 | 256 | 8.0 | 11.3 | 0.00 | 0.05 | 0.05 | 52 | 1013.2 |
| 20260507171658 | 13 | 359 | 0.0 | 12.9 | 0.00 | 0.05 | 0.05 | 56 | 1013.3 |
| 20260507171156 | 13 | 312 | 3.2 | 6.4 | 0.00 | 0.05 | 0.05 | 54 | 1013.3 |
| 20260507170653 | 13 | 271 | 0.0 | 6.4 | 0.00 | 0.05 | 0.05 | 52 | 1013.3 |
| 20260507170150 | 12 | 323 | 1.6 | 3.2 | 0.00 | 0.05 | 0.05 | 55 | 1013.4 |
| 20260507165645 | 12 | 316 | 1.6 | 6.4 | 0.00 | 0.05 | 0.05 | 60 | 1013.6 |
| 20260507165142 | 12 | 47 | 3.2 | 11.3 | 0.00 | 0.05 | 0.05 | 62 | 1013.6 |
| 20260507164638 | 12 | 330 | 3.2 | 4.8 | 0.00 | 0.05 | 0.05 | 63 | 1013.4 |
| 20260507164135 | 12 | 74 | 1.6 | 9.7 | 0.00 | 0.05 | 0.05 | 60 | 1013.4 |
| 20260507163632 | 12 | 45 | 1.6 | 3.2 | 0.00 | 0.05 | 0.05 | 61 | 1013.5 |
| 20260507163130 | 12 | 324 | 6.4 | 6.4 | 0.00 | 0.05 | 0.05 | 60 | 1013.4 |
| 20260507162625 | 12 | 300 | 4.8 | 6.4 | 0.00 | 0.05 | 0.05 | 57 | 1013.6 |
| 20260507162122 | 12 | 132 | 1.6 | 3.2 | 0.00 | 0.05 | 0.05 | 59 | 1013.6 |
| 20260507161618 | 12 | 12 | 3.2 | 4.8 | 0.00 | 0.05 | 0.05 | 61 | 1013.8 |
| 20260507161115 | 12 | 292 | 3.2 | 9.7 | 0.00 | 0.05 | 0.05 | 57 | 1013.9 |
| 20260507160612 | 12 | 87 | 4.8 | 4.8 | 0.00 | 0.05 | 0.05 | 61 | 1014.1 |
| 20260507160108 | 12 | 188 | 3.2 | 4.8 | 0.00 | 0.05 | 0.05 | 55 | 1013.9 |
| 20260507155603 | 13 | 302 | 1.6 | 9.7 | 0.00 | 0.05 | 0.05 | 58 | 1013.6 |
| 20260507155100 | 12 | 217 | 1.6 | 9.7 | 0.00 | 0.05 | 0.05 | 58 | 1013.9 |
| 20260507154557 | 12 | 202 | 3.2 | 4.8 | 0.00 | 0.05 | 0.05 | 57 | 1014.0 |
| 20260507154054 | 12 | 288 | 3.2 | 3.2 | 0.00 | 0.05 | 0.05 | 57 | 1014.1 |
| 20260507153551 | 11 | 324 | 1.6 | 4.8 | 0.00 | 0.05 | 0.05 | 64 | 1013.9 |
| 20260507153047 | 12 | 271 | 1.6 | 4.8 | 0.00 | 0.05 | 0.05 | 61 | 1014.0 |
| 20260507152543 | 11 | 321 | 6.4 | 6.4 | 0.00 | 0.05 | 0.05 | 62 | 1014.1 |
| 20260507152040 | 11 | 89 | 0.0 | 4.8 | 0.00 | 0.05 | 0.05 | 65 | 1014.2 |
| 20260507151536 | 11 | 175 | 1.6 | 3.2 | 0.00 | 0.05 | 0.05 | 64 | 1014.0 |
| 20260507151033 | 11 | 303 | 6.4 | 11.3 | 0.00 | 0.05 | 0.05 | 66 | 1014.1 |
| 20260507150530 | 11 | 293 | 6.4 | 6.4 | 0.00 | 0.05 | 0.05 | 66 | 1014.2 |
| 20260507150027 | 11 | 295 | 4.8 | 4.8 | 0.00 | 0.05 | 0.05 | 66 | 1014.1 |
| 20260507145522 | 11 | 105 | 3.2 | 6.4 | 0.00 | 0.05 | 0.05 | 65 | 1014.2 |
| 20260507145020 | 11 | 321 | 1.6 | 4.8 | 0.00 | 0.05 | 0.05 | 66 | 1014.1 |
| 20260507144516 | 11 | 77 | 1.6 | 4.8 | 0.00 | 0.05 | 0.05 | 70 | 1014.3 |
| 20260507144014 | 10 | 107 | 3.2 | 12.9 | 0.00 | 0.05 | 0.05 | 70 | 1014.4 |
| 20260507143511 | 11 | 304 | 4.8 | 9.7 | 0.00 | 0.05 | 0.05 | 69 | 1014.3 |
| 20260507143008 | 11 | 301 | 1.6 | 3.2 | 0.00 | 0.05 | 0.05 | 70 | 1014.5 |
| 20260507142503 | 10 | 308 | 1.6 | 3.2 | 0.00 | 0.05 | 0.05 | 77 | 1014.5 |
| 20260507142001 | 10 | 297 | 3.2 | 3.2 | 0.00 | 0.05 | 0.05 | 77 | 1014.6 |
| 20260507141456 | 9 | 321 | 4.8 | 6.4 | 0.00 | 0.05 | 0.05 | 76 | 1014.7 |
| 20260507140953 | 10 | 323 | 3.2 | 4.8 | 0.00 | 0.05 | 0.05 | 77 | 1014.8 |
| 20260507140450 | 9 | 273 | 3.2 | 3.2 | 0.00 | 0.05 | 0.05 | 79 | 1015.0 |
| 20260507135947 | 9 | 273 | 3.2 | 4.8 | 0.00 | 0.05 | 0.05 | 80 | 1014.9 |
| 20260507135444 | 9 | 242 | 0.0 | 1.6 | 0.00 | 0.05 | 0.05 | 80 | 1014.9 |
| 20260507134941 | 8 | 242 | 0.0 | 1.6 | 0.00 | 0.05 | 0.05 | 84 | 1014.9 |
| 20260507134438 | 8 | 154 | 1.6 | 3.2 | 0.00 | 0.05 | 0.05 | 80 | 1015.0 |
| 20260507133934 | 8 | 207 | 1.6 | 3.2 | 0.00 | 0.05 | 0.05 | 82 | 1014.8 |
| 20260507133430 | 8 | 148 | 0.0 | 1.6 | 0.00 | 0.05 | 0.05 | 85 | 1014.9 |
| 20260507132929 | 8 | 105 | 1.6 | 1.6 | 0.00 | 0.05 | 0.05 | 84 | 1015.0 |
| 20260507132424 | 8 | 147 | 0.0 | 1.6 | 0.00 | 0.05 | 0.05 | 85 | 1015.4 |
| 20260507131921 | 8 | 237 | 1.6 | 3.2 | 0.00 | 0.05 | 0.05 | 87 | 1015.5 |
| 20260507131418 | 7 | 121 | 0.0 | 1.6 | 0.00 | 0.05 | 0.05 | 89 | 1015.3 |
| 20260507130915 | 7 | 132 | 0.0 | 1.6 | 0.00 | 0.05 | 0.05 | 91 | 1015.4 |
| 20260507130412 | 7 | 132 | 0.0 | 1.6 | 0.00 | 0.05 | 0.05 | 92 | 1015.4 |
| 20260507125911 | 7 | 132 | 0.0 | 1.6 | 0.00 | 0.05 | 0.05 | 92 | 1015.4 |
| 20260507125409 | 7 | 132 | 0.0 | 1.6 | 0.00 | 0.05 | 0.05 | 94 | 1015.5 |
| 20260507124906 | 7 | 121 | 0.0 | 0.0 | 0.00 | 0.05 | 0.05 | 96 | 1015.3 |
| 20260507124401 | 7 | 124 | 0.0 | 1.6 | 0.00 | 0.05 | 0.05 | 98 | 1015.4 |
| 20260507123900 | 7 | 124 | 0.0 | 0.0 | 0.00 | 0.05 | 0.05 | 98 | 1015.5 |
| 20260507123357 | 7 | 124 | 0.0 | 0.0 | 0.00 | 0.05 | 0.05 | 98 | 1015.4 |
| 20260507122853 | 7 | 124 | 0.0 | 0.0 | 0.00 | 0.05 | 0.05 | 98 | 1015.3 |
| 20260507122349 | 7 | 124 | 0.0 | 1.6 | 0.00 | 0.05 | 0.05 | 99 | 1015.6 |
| 20260507121845 | 6 | 124 | 0.0 | 1.6 | 0.00 | 0.05 | 0.05 | 99 | 1015.4 |
| 20260507121341 | 6 | 124 | 0.0 | 0.0 | 0.00 | 0.05 | 0.05 | 99 | 1015.3 |
| 20260507120838 | 6 | 124 | 0.0 | 0.0 | 0.00 | 0.05 | 0.05 | 99 | 1015.5 |
| 20260507120334 | 6 | 124 | 0.0 | 1.6 | 0.00 | 0.05 | 0.05 | 99 | 1015.3 |
| 20260507115830 | 6 | 124 | 1.6 | 1.6 | 0.00 | 0.05 | 0.05 | 98 | 1015.4 |
| 20260507115326 | 6 | 120 | 3.2 | 3.2 | 0.00 | 0.05 | 0.05 | 97 | 1015.4 |
| 20260507114822 | 6 | 110 | 1.6 | 3.2 | 0.00 | 0.05 | 0.05 | 96 | 1015.3 |
| 20260507114319 | 6 | 119 | 6.4 | 6.4 | 0.00 | 0.05 | 0.05 | 96 | 1015.1 |
| 20260507113817 | 7 | 104 | 1.6 | 3.2 | 0.00 | 0.05 | 0.05 | 96 | 1015.3 |
| 20260507113313 | 7 | 108 | 1.6 | 1.6 | 0.00 | 0.05 | 0.05 | 98 | 1014.9 |
| 20260507112811 | 7 | 108 | 0.0 | 0.0 | 0.00 | 0.05 | 0.05 | 98 | 1014.7 |
| 20260507112308 | 7 | 108 | 0.0 | 1.6 | 0.00 | 0.05 | 0.05 | 99 | 1014.7 |
| 20260507111806 | 7 | 108 | 0.0 | 3.2 | 0.00 | 0.05 | 0.05 | 99 | 1014.7 |
| 20260507111302 | 7 | 112 | 0.0 | 0.0 | 0.00 | 0.05 | 0.05 | 99 | 1014.6 |
| 20260507110758 | 7 | 112 | 0.0 | 0.0 | 0.00 | 0.05 | 0.05 | 99 | 1014.5 |
| 20260507110255 | 7 | 112 | 0.0 | 0.0 | 0.00 | 0.05 | 0.05 | 99 | 1014.6 |
| 20260507105752 | 7 | 112 | 0.0 | 0.0 | 0.00 | 0.05 | 0.05 | 99 | 1014.6 |
| 20260507105248 | 7 | 112 | 0.0 | 0.0 | 0.00 | 0.05 | 0.05 | 99 | 1014.3 |
| 20260507104745 | 7 | 112 | 0.0 | 1.6 | 0.00 | 0.05 | 0.05 | 99 | 1014.2 |
| 20260507104242 | 7 | 111 | 0.0 | 1.6 | 0.00 | 0.05 | 0.05 | 99 | 1014.2 |
| 20260507103738 | 7 | 111 | 1.6 | 1.6 | 0.00 | 0.05 | 0.05 | 99 | 1014.4 |
| 20260507103234 | 7 | 108 | 0.0 | 1.6 | 0.00 | 0.05 | 0.05 | 99 | 1014.3 |
| 20260507102730 | 7 | 108 | 1.6 | 1.6 | 0.00 | 0.05 | 0.05 | 99 | 1014.2 |
| 20260507102227 | 7 | 108 | 0.0 | 3.2 | 0.00 | 0.05 | 0.05 | 99 | 1014.3 |
| 20260507101723 | 7 | 14 | 1.6 | 1.6 | 0.00 | 0.05 | 0.05 | 99 | 1014.3 |
| 20260507101219 | 7 | 26 | 1.6 | 1.6 | 0.00 | 0.05 | 0.05 | 99 | 1014.2 |
| 20260507100716 | 7 | 25 | 1.6 | 4.8 | 0.00 | 0.05 | 0.05 | 99 | 1014.3 |
| 20260507100214 | 7 | 103 | 0.0 | 1.6 | 0.00 | 0.05 | 0.05 | 99 | 1014.3 |
| 20260507095712 | 8 | 158 | 0.0 | 1.6 | 0.00 | 0.05 | 0.05 | 99 | 1014.1 |
| 20260507095208 | 8 | 308 | 0.0 | 0.0 | 0.00 | 0.05 | 0.05 | 99 | 1014.0 |
| 20260507094705 | 8 | 308 | 0.0 | 1.6 | 0.00 | 0.05 | 0.05 | 99 | 1014.1 |
| 20260507094202 | 8 | 307 | 0.0 | 0.0 | 0.00 | 0.05 | 0.05 | 99 | 1013.9 |
| 20260507093659 | 8 | 308 | 0.0 | 0.0 | 0.00 | 0.05 | 0.05 | 99 | 1013.9 |
| 20260507093158 | 8 | 307 | 0.0 | 0.0 | 0.00 | 0.05 | 0.05 | 99 | 1013.9 |
| 20260507092654 | 8 | 307 | 0.0 | 1.6 | 0.18 | 0.05 | 0.05 | 99 | 1013.5 |
| 20260507092151 | 8 | 307 | 0.0 | 0.0 | 0.18 | 0.05 | 0.05 | 99 | 1013.5 |
| 20260507091647 | 8 | 307 | 0.0 | 0.0 | 0.00 | 0.03 | 0.03 | 99 | 1013.6 |
| 20260507091144 | 8 | 307 | 0.0 | 0.0 | 0.00 | 0.03 | 0.03 | 99 | 1013.6 |
| 20260507090639 | 8 | 307 | 0.0 | 0.0 | 0.00 | 0.03 | 0.03 | 99 | 1013.8 |
| 20260507090137 | 8 | 307 | 0.0 | 0.0 | 0.00 | 0.03 | 0.03 | 99 | 1013.9 |
| 20260507085634 | 8 | 307 | 1.6 | 1.6 | 0.00 | 0.03 | 0.03 | 99 | 1014.1 |
| 20260507085130 | 8 | 314 | 0.0 | 0.0 | 0.00 | 0.03 | 0.03 | 99 | 1013.8 |
| 20260507084627 | 8 | 314 | 0.0 | 0.0 | 0.00 | 0.03 | 0.03 | 99 | 1014.1 |
| 20260507084124 | 8 | 314 | 0.0 | 0.0 | 0.00 | 0.03 | 0.03 | 99 | 1014.0 |
| 20260507083621 | 8 | 314 | 0.0 | 0.0 | 0.00 | 0.03 | 0.03 | 99 | 1014.1 |
| 20260507083118 | 8 | 314 | 0.0 | 0.0 | 0.00 | 0.03 | 0.03 | 99 | 1014.0 |
| 20260507082613 | 8 | 314 | 1.6 | 1.6 | 0.00 | 0.03 | 0.03 | 99 | 1014.0 |
| 20260507082110 | 8 | 314 | 0.0 | 0.0 | 0.00 | 0.03 | 0.03 | 99 | 1013.8 |
| 20260507081606 | 8 | 314 | 0.0 | 0.0 | 0.00 | 0.03 | 0.03 | 99 | 1014.0 |
| 20260507081103 | 8 | 314 | 0.0 | 0.0 | 0.00 | 0.03 | 0.03 | 99 | 1013.8 |
| 20260507080559 | 8 | 314 | 0.0 | 0.0 | 0.00 | 0.03 | 0.03 | 99 | 1014.0 |
| 20260507080056 | 8 | 314 | 0.0 | 0.0 | 0.00 | 0.03 | 0.03 | 99 | 1014.1 |
| 20260507075551 | 8 | 314 | 0.0 | 0.0 | 0.00 | 0.03 | 0.03 | 99 | 1014.2 |
| 20260507075047 | 8 | 314 | 0.0 | 0.0 | 0.00 | 0.03 | 0.03 | 99 | 1014.3 |
| 20260507074544 | 8 | 314 | 0.0 | 0.0 | 0.00 | 0.03 | 0.03 | 99 | 1014.1 |
| 20260507074043 | 8 | 314 | 0.0 | 0.0 | 0.00 | 0.03 | 0.03 | 99 | 1014.2 |
| 20260507073538 | 8 | 314 | 0.0 | 0.0 | 0.00 | 0.03 | 0.03 | 99 | 1014.0 |
| 20260507073035 | 8 | 314 | 0.0 | 0.0 | 0.00 | 0.03 | 0.03 | 99 | 1014.2 |
| 20260507072533 | 8 | 314 | 0.0 | 0.0 | 0.00 | 0.03 | 0.03 | 99 | 1014.1 |
| 20260507072030 | 8 | 314 | 0.0 | 0.0 | 0.00 | 0.03 | 0.03 | 99 | 1014.1 |
| 20260507071527 | 8 | 314 | 0.0 | 0.0 | 0.00 | 0.03 | 0.03 | 99 | 1014.2 |
| 20260507071024 | 8 | 314 | 0.0 | 0.0 | 0.00 | 0.03 | 0.03 | 99 | 1014.3 |
| 20260507070521 | 8 | 314 | 1.6 | 1.6 | 0.00 | 0.03 | 0.03 | 99 | 1013.9 |
| 20260507070018 | 8 | 314 | 1.6 | 4.8 | 0.00 | 0.03 | 0.03 | 99 | 1013.9 |
| 20260507065514 | 8 | 326 | 0.0 | 1.6 | 0.00 | 0.03 | 0.03 | 99 | 1013.9 |
| 20260507065011 | 8 | 20 | 0.0 | 1.6 | 0.00 | 0.03 | 0.03 | 99 | 1013.9 |
| 20260507064509 | 8 | 20 | 0.0 | 0.0 | 0.00 | 0.03 | 0.03 | 99 | 1014.1 |
| 20260507064008 | 8 | 10 | 1.6 | 3.2 | 0.00 | 0.03 | 0.03 | 99 | 1013.9 |
| 20260507063504 | 8 | 63 | 1.6 | 1.6 | 0.00 | 0.03 | 0.03 | 99 | 1014.2 |
| 20260507063001 | 8 | 110 | 0.0 | 0.0 | 0.00 | 0.03 | 0.03 | 99 | 1013.9 |
| 20260507062458 | 8 | 74 | 0.0 | 1.6 | 0.00 | 0.03 | 0.03 | 99 | 1014.0 |
| 20260507061955 | 8 | 74 | 1.6 | 3.2 | 0.00 | 0.03 | 0.03 | 99 | 1013.9 |
| 20260507061453 | 9 | 38 | 1.6 | 3.2 | 0.00 | 0.03 | 0.03 | 99 | 1014.0 |
| 20260507060952 | 9 | 51 | 0.0 | 0.0 | 0.00 | 0.03 | 0.03 | 99 | 1014.2 |
| 20260507060448 | 9 | 103 | 0.0 | 1.6 | 0.00 | 0.03 | 0.03 | 99 | 1014.2 |
| 20260507055945 | 9 | 110 | 0.0 | 1.6 | 0.00 | 0.03 | 0.03 | 99 | 1014.4 |
| 20260507055440 | 9 | 110 | 0.0 | 0.0 | 0.13 | 0.03 | 0.03 | 99 | 1014.3 |
| 20260507054937 | 9 | 107 | 0.0 | 1.6 | 0.13 | 0.03 | 0.03 | 99 | 1014.2 |
| 20260507054433 | 9 | 107 | 0.0 | 1.6 | 0.00 | 0.00 | 0.00 | 99 | 1014.4 |